Tracking 28790 objects as of 19-Apr-2024
HD Live streaming from Space Station
objects crossing your sky now

THOR ABLESTAR DEB

Track THOR ABLESTAR DEB now!
10-day predictions


NORAD ID: 652
Int'l Code: 1961-015HD
Perigee: 798.3 km
Apogee: 912.9 km
Inclination: 66.7 °
Period: 101.9 minutes
Semi major axis: 7226 km
RCS: 0.0233 m2 (small)
Launch date: June 29, 1961
Source: United States (US)
Launch site: AIR FORCE EASTERN TEST RANGE (AFETR)

Note: This is SATELLITE DEBRIS
Your satellite tracking list
Your tracking list is empty




NASA's NSSDC Master Catalog

Two Line Element Set (TLE):
1 00652U 61015HD  24109.48058715  .00004569  00000-0  24071-2 0  9990
2 00652  66.6944 326.7403 0079259 202.4718 157.2894 14.13201547182017
Source of the keplerian elements: AFSPC